Preview of NWS' New Version of Forecast
This preview is not operational and should not be used for support decisions.

Regional Weather Roundup (RWR)

Issued by National Weather Service (NWS)

                            
000
ASUS43 KTOP 190808
RWRKS 

WEATHER ROUNDUP FOR KANSAS
NATIONAL WEATHER SERVICE GOODLAND KS
300 AM CDT MON AUG 19 2019

NOTE:  "FAIR" INDICATES FEW OR NO CLOUDS BELOW 12,000 FEET WITH NO
SIGNIFICANT WEATHER AND/OR OBSTRUCTIONS TO VISIBILITY.

KSZ001>006-013>018-027>032-041>047-190900-
NORTHWEST KANSAS
  
CITY           SKY/WX    TMP DP  RH WIND       PRES   REMARKS
GOODLAND       CLEAR     66  65  96 S8        29.99F                  
HAYS           CLEAR     71  70  96 E7        29.84F                  
HILL CITY      CLEAR     69  67  93 NE6       29.96S                  
RUSSELL        CLEAR     73  69  87 SE9       29.92F                  
$$

KSZ061>065-074>080-084>089-190900-
SOUTHWEST KANSAS
  
CITY           SKY/WX    TMP DP  RH WIND       PRES   REMARKS
DODGE CITY     CLEAR     73  70  90 SE10      29.93F                  
ELKHART        CLEAR     72  68  89 S9        29.99S                  
GARDEN CITY    CLEAR     68  65  90 E5        29.95R                  
GREAT BEND     CLEAR     74  71  91 E8        29.93F                  
LIBERAL        CLEAR     71  68  90 S7        29.96F                  
PRATT          CLEAR     78  73  86 SE7       29.92S                  
$$

KSZ066>073-081>083-090>101-190900-
SOUTHEAST KANSAS
  
CITY           SKY/WX    TMP DP  RH WIND       PRES   REMARKS
CHANUTE        PTCLDY    77  72  84 S7        29.94S                  
COFFEYVILLE    CLOUDY    77  73  87 SE3       29.92S                  
HUTCHINSON     CLEAR     76  73  91 E7        29.91F                  
MEDICINE LODGE   N/A     79  75  87 E7        29.89F                  
NEWTON         PTCLDY    75  74  96 E6        29.94S                  
PARSONS        PTCLDY    76  73  91 CALM      29.94S                  
WICHITA INTL   PTCLDY    79  74  84 SE14      29.89F                  
WICHITA JABRA  CLEAR     77  75  93 SE6       29.91F                  
WICHITA MCCONL CLEAR     78  73  84 E13       29.91F                  
WINFIELD       MOCLDY    79  73  82 SE7       29.92F                  
$$

KSZ007>012-019>026-033>040-048>060-102>105-190900-
NORTHEAST KANSAS
  
CITY           SKY/WX    TMP DP  RH WIND       PRES   REMARKS
CONCORDIA      CLEAR     69  67  93 E5        29.96S                  
EMPORIA        MOCLDY    74  74 100 S7        29.94S                  
LAWRENCE       CLEAR     74  69  85 CALM      29.94R                  
MANHATTAN      CLEAR     72  69  90 NE6       29.95R                  
MARYSVILLE     CLEAR     64  64 100 CALM      29.97S FOG              
OLATHE IND     CLEAR     73  71  93 S5        29.95S                  
OLATHE EXE     CLEAR     73  72  96 S3        29.95R                  
SALINA         CLOUDY    75  70  84 SE3       29.93F                  
TOPEKA BILLARD CLEAR     73  68  84 CALM      29.94R                  
TOPEKA FORBES  CLEAR     74  70  87 CALM      29.95R                  
$$